Weather History for KPBG - August, 2014

Change the Weather History Date:

Saturday, August 23, 2014

  Actual Average Record
Temperature  
Mean Temperature 67 °F 67 °F  
Max Temperature 77 °F 78 °F 88 °F (1949)
Min Temperature 57 °F 55 °F 43 °F (1988)
Degree Days  
Heating Degree Days 0 1  
Month to date heating degree days 24 11  
Since 1 June heating degree days 93 107  
Since 1 July heating degree days 39 22  
Cooling Degree Days 2 3  
Month to date cooling degree days 42 86  
Year to date cooling degree days 235 299  
Since 1 June cooling degree days 222 291  
Growing Degree Days 16 (Base 50)    
Moisture  
Dew Point 58 °F    
Average Humidity 72    
Maximum Humidity 100    
Minimum Humidity 43    
Precipitation  
Precipitation T in - 1.02 in (1971)
Month to date precipitation 3.17  
Year to date precipitation 21.78  
Sea Level Pressure  
Sea Level Pressure 30.13 in    
Wind  
Wind Speed 1 mph (ENE)    
Max Wind Speed 9 mph    
Max Gust Speed 12 mph    
Visibility 8 miles    
Events      
T = Trace of Precipitation, MM = Missing Value Source: NWS Daily Summary

Daily Weather History Graph

Daily Weather History Graph

Search for Another Location

Airport or City:

Trip Planner

Search our weather history database for the weather conditions in past years. The results will help you decide how hot, cold, wet, or windy it might be!

Date:

Astronomy

Aug. 23, 2014 Rise Set
Actual Time 6:05 AM EDT 7:46 PM EDT
Civil Twilight 5:34 AM EDT 8:17 PM EDT
Nautical Twilight 4:57 AM EDT 8:54 PM EDT
Astronomical Twilight 4:16 AM EDT 9:34 PM EDT
Moon 4:17 AM EDT (8/23) 6:30 PM EDT (8/23)
Length of Visible Light 14h 42m
Length of Day
13h 40m
Waning Crescent, 3% of the Moon is Illuminated
Aug 23
Waning Crescent
Aug 25
New
Sep 2
First Quarter
Sep 8
Full
Sep 15
Last Quarter

Hourly Weather History & Observations

Time (EDT) Temp. Dew Point Humidity Pressure Visibility Wind Dir Wind Speed Gust Speed Precip Events Conditions
12:53 AM 62.1 °F 60.1 °F 93% 30.12 in 10.0 mi SW 3.5 mph - N/A   Overcast
1:53 AM 61.0 °F 60.1 °F 97% 30.12 in 10.0 mi Calm Calm - N/A   Overcast
2:53 AM 61.0 °F 60.1 °F 97% 30.11 in 7.0 mi Calm Calm - N/A   Overcast
3:53 AM 60.1 °F 60.1 °F 100% 30.11 in 3.0 mi Calm Calm - N/A   Overcast
4:28 AM 59.0 °F 59.0 °F 100% 30.11 in 1.8 mi Calm Calm - N/A   Mostly Cloudy
4:40 AM 59.0 °F 59.0 °F 100% 30.11 in 0.8 mi Calm Calm - N/A   Scattered Clouds
5:45 AM 57.9 °F 57.9 °F 100% 30.13 in 1.8 mi Calm Calm - N/A   Mostly Cloudy
5:53 AM 57.9 °F 57.9 °F 100% 30.13 in 1.5 mi Calm Calm - N/A   Scattered Clouds
6:14 AM 57.9 °F 57.0 °F 97% 30.13 in 4.0 mi Calm Calm - N/A   Clear
6:41 AM 57.9 °F 57.0 °F 97% 30.14 in 2.0 mi Calm Calm - N/A   Mostly Cloudy
6:50 AM 57.2 °F 57.2 °F 100% 30.14 in 6.0 mi Calm Calm - N/A   Overcast
8:53 AM 66.9 °F 63.0 °F 87% 30.15 in 10.0 mi Calm Calm - N/A   Scattered Clouds
9:53 AM 69.1 °F 60.1 °F 73% 30.15 in 10.0 mi Calm Calm - N/A   Clear
10:53 AM 70.0 °F 60.1 °F 71% 30.15 in 10.0 mi Variable 3.5 mph - N/A   Clear
11:53 AM 72.0 °F 57.0 °F 59% 30.15 in 10.0 mi ESE 4.6 mph - N/A   Clear
12:53 PM 73.9 °F 57.9 °F 57% 30.14 in 10.0 mi Calm Calm - N/A   Clear
1:53 PM 75.0 °F 57.9 °F 55% 30.13 in 10.0 mi NNE 4.6 mph - 0.00 in   Mostly Cloudy
2:53 PM 75.0 °F 55.9 °F 51% 30.12 in 10.0 mi Calm Calm - N/A   Scattered Clouds
3:53 PM 75.9 °F 55.0 °F 48% 30.12 in 10.0 mi NNE 4.6 mph - N/A   Partly Cloudy
5:53 PM 75.9 °F 53.1 °F 45% 30.12 in 10.0 mi ENE 4.6 mph - N/A   Mostly Cloudy
6:53 PM 70.0 °F 59.0 °F 68% 30.12 in 10.0 mi Calm Calm - N/A   Clear
7:53 PM 64.9 °F 60.1 °F 84% 30.13 in 10.0 mi Calm Calm - N/A   Clear
8:10 PM 64.0 °F 61.0 °F 90% 30.13 in 10.0 mi Calm Calm - N/A   Partly Cloudy
8:53 PM 63.0 °F 60.1 °F 90% 30.13 in 10.0 mi Calm Calm - N/A   Clear
9:53 PM 63.0 °F 59.0 °F 87% 30.13 in 10.0 mi Calm Calm - N/A   Clear
10:53 PM 59.0 °F 57.0 °F 93% 30.14 in 10.0 mi Calm Calm - N/A   Clear
11:53 PM 59.0 °F 57.0 °F 93% 30.14 in 10.0 mi Calm Calm - N/A   Clear